Regional Weather Roundup
Issued by NWS

Home | Current Version | Previous Version | Graphics & Text | Print | Product List | Glossary On
Versions: 1 2 3 4 5 6 7 8 9 10 11 12 13 14 15 16 17 18 19 20 21 22 23 24 25 26 27 28 29 30 31 32 33 34 35 36 37 38 39 40 41 42 43 44 45 46 47 48 49 50
000
ASUS45 KTFX 181319
RWRMT
MONTANA HOURLY WEATHER ROUNDUP
NATIONAL WEATHER SERVICE GREAT FALLS MT
719 AM MDT FRI APR 18 2014

NOTE: "FAIR" INDICATES FEW OR NO CLOUDS BELOW 12000 FEET WITH NO
SIGNIFICANT WEATHER AND/OR OBSTRUCTIONS TO VISIBILITY.

* THESE STATIONS ARE NOT UNDER NWS QUALITY CONTROL. THEY DO NOT
   REPORT WEATHER SUCH AS PRECIPITATION OR FOG.

MTZ001>007-043-181400-
WEST OF THE DIVIDE
CITY           SKY/WX    TMP DP  RH WIND       PRES   REMARKS
KALISPELL      CLOUDY    45  37  74 S10       29.70S
MISSOULA       CLOUDY    43  37  79 SW7       29.80R
BUTTE          CLOUDY    39  37  93 N3        29.76F
MULLAN PASS    LGT SNOW  27  25  92 SW10G26   29.75S VSB 2    WCI  18
* ESSEX        N/A       35  34  96 NE1        N/A
* LINCOLN      N/A       39  37  93 SW4G9      N/A
* LOOKOUT PASS N/A       34  27  76 SE12G26    N/A   WCI  25
* POLSON       N/A       39  34  82 S3G11      N/A
* SEELEY LAKE  N/A       37  36  96 N/A        N/A
* THOMP F APT  PTCLDY    42  32  68 SE7G12     N/A
* YAAK HILL    N/A       42  40  93 NW1        N/A
$$

MTZ008-052>055-181400-
SOUTHWEST MONTANA
CITY           SKY/WX    TMP DP  RH WIND       PRES   REMARKS
BOZEMAN        LGT RAIN  46  39  77 NW13      29.74R
DILLON         CLOUDY    43  39  86 E10       29.77R
W YELLOWSTONE  N/A       37  36  96 S6G17      N/A   WCI  32
* THREE FORKS  CLOUDY    45  45 100 N/A        N/A
* BOULDER HILL N/A       40  32  73 S3G9       N/A
* MONIDA PASS  N/A       39  33  79 E17G22     N/A   WCI  30
* RAYNOLDS PAS N/A       39  23  53 S20        N/A   WCI  29
* WHITEHALL    N/A       44  39  83 S3         N/A
* WISE RIVER   N/A       38  37  96 W5         N/A   WCI  34
$$

MTZ009>010-012-014-046-048-049-054-181400-
EAST SLOPES AND CENTRAL MONTANA
CITY           SKY/WX    TMP DP  RH WIND       PRES   REMARKS
CUT BANK       PTCLDY    41  32  70 W14       29.62S
GREAT FALLS    CLOUDY    45  39  80 SW15      29.65R
HELENA         CLOUDY    46  37  71 NW8       29.73R
MALMSTROM AFB  CLOUDY    46  39  77 S15       29.63R
* CONRAD       CLOUDY    39  37  93 W6         N/A   WCI  35
* DEARBORN     N/A       49  35  59 S4G9       N/A
* EAST GLACIER N/A       37  31  79 W25G35     N/A   WCI  25
* MONARCH      N/A       41  31  68 S11G16     N/A
* PENDROY      N/A       43  31  63 SE4G9      N/A
* ROGERS PASS  N/A       37  33  85 SE11G21    N/A   WCI  29
* SAINT MARY   N/A       39  32  76 S10G22     N/A   WCI  32
* SWEET GRASS  N/A       42  37  83 W24G32     N/A
* WHITE SULPH  N/A       40  37  89 E2         N/A
$$

MTZ011-013-016-021-035-040-045-047-050-051-181400-
NORTH CENTRAL MONTANA
CITY           SKY/WX    TMP DP  RH WIND       PRES   REMARKS
HAVRE          CLOUDY    46  43  89 E3        29.62S
LEWISTOWN      CLOUDY    45  37  74 W5        29.67F
* CHINOOK      CLOUDY    45  43  93 E8        29.62F
* FORT BENTON  CLOUDY    46  43  89 SW3       29.65F
* MALTA APT    CLOUDY    45  34  65 E10       29.63F
* CHESTER      N/A       42  40  93 SE3        N/A
* DENTON       N/A       48  38  68 SW12       N/A
* GEYSER       N/A       46  34  63 W12G17     N/A
* JUDITH GAP   N/A       44  32  63 VRB6       N/A
* LOMA         N/A       48  44  86 W6         N/A
$$

MTZ017>020-022>027-061-062-181400-
NORTHEAST MONTANA
CITY           SKY/WX    TMP DP  RH WIND       PRES   REMARKS
GLASGOW        CLOUDY    39  32  76 E23       29.68F WCI  28
GLENDIVE       PTCLDY    37  27  67 E9        29.79S WCI  30
JORDAN         CLOUDY    45  36  71 VRB6      29.67S
SIDNEY         MOCLDY    36  25  64 SE10      29.85F WCI  29
WOLF POINT     CLOUDY    41  28  60 E15G23    29.76F
* BEAVER HILL  N/A       32  24  72 E30G37     N/A   WCI  18
* CIRCLE       N/A       41  33  73 NE5G10     N/A
* LINDSAY DVD  N/A       33  28  82 E15        N/A   WCI  23
* NAVAJO       N/A       34  28  79 SE18       N/A   WCI  23
* SACO         N/A       42  32  68 E22G29     N/A
$$

MTZ028>042-056>058-181400-
SOUTHCENTRAL AND SOUTHEAST MONTANA
CITY           SKY/WX    TMP DP  RH WIND       PRES   REMARKS
BAKER          CLEAR     30  27  89 SE16      29.79F WCI  19
BILLINGS       CLOUDY    46  30  54 W10       29.66R
LIVINGSTON     CLOUDY    50  36  59 NW14G26   29.67R
MILES CITY     PTCLDY    45  36  71 SE12      29.70F
* EKALAKA APT  CLEAR     37  30  76 E16G22    29.74F WCI  28
* LAUREL APT   CLOUDY    46  28  50 N/A        N/A
* ROUNDUP APT  CLOUDY    41  32  70 SW6        N/A
* HYSHAM       N/A       52  23  32 SW1G9      N/A
* LAME DEER    N/A       44  32  63 SE9        N/A
* REED POINT   N/A       39  33  79 W7         N/A   WCI  34
* ROSCOE HILL  N/A       52  23  32 SW15G26    N/A
$$

REGIONAL REPORTS...DAKOTAS
CITY           SKY/WX    TMP DP  RH WIND       PRES   REMARKS
WILLISTON      PTCLDY    36  23  59 SE16      29.88F WCI  26
DICKINSON      PTCLDY    32  25  75 SE18      29.86F WCI  21
CROSBY         CLOUDY    36  25  64 SE23G31   29.91F WCI  24
TIOGA          CLOUDY    32  23  69 SE22G31   29.95F WCI  19
WATFORD CITY   FAIR      34  23  64 SE16G23   29.86F WCI  24
BISMARCK       PTCLDY    36  21  54 SE20G26   30.04F WCI  25
GRAND FORKS    MOCLDY    36  18  48 SE9       30.28S WCI  29
FARGO          CLOUDY    36  25  64 S13       30.27S WCI  27
BUFFALO SD     PTCLDY    28  25  89 NE6       29.77F WCI  21
RAPID CITY     PTCLDY    36  32  85 E5        29.81F WCI  32
$$

REGIONAL REPORTS...WYOMING/IDAHO/WASHINGTON
CITY           SKY/WX    TMP DP  RH WIND       PRES   REMARKS
GILLETTE       PTCLDY    45  34  65 SE15      29.75F
SHERIDAN       CLOUDY    39  34  82 VRB6      29.74R WCI  35
CODY           MOCLDY    46  36  68 SE7       29.75R
YELLOWSTONE LA MOCLDY    32  32 100 CALM      29.90R
SALMON         CLOUDY    43  37  79 CALM      29.81R
MULLAN PASS    LGT SNOW  27  25  92 SW10G26   29.75S VSB 2    WCI  18
SAND POINT     CLOUDY    41  37  86 S7        29.76R
SPOKANE        PTCLDY    36  28  73 SW18      29.81R WCI  26
$$

REGIONAL REPORTS...ALBERTA
CITY           SKY/WX    TMP DP  RH WIND       PRES   REMARKS
CALGARY        FOG       32  30  92 N10       29.57F VSB 1/2  WCI  24
LETHBRIDGE     MOCLDY    34  32  92 W10       29.57F WCI  26
MEDICINE HAT   MOCLDY    43  37  79 W3        29.58F
EDMONTON       LGT SNOW  28  27  96 N9        29.67F VSB 1    WCI  19
WATERTON GATE  N/A       39  34  82 SW21G31    N/A   WCI  29
CARDSTON       N/A       41  34  76 S6         N/A
MILK RIVER     N/A       37  34  89 SW5        N/A   WCI  33
$$

REGIONAL REPORTS...SASKATCHEWAN
CITY           SKY/WX    TMP DP  RH WIND       PRES   REMARKS
SWIFT CURRENT  LGT RAIN  37  34  89 SE14G21   29.66S WCI  28
REGINA         FRZ RAIN  32  27  82 SE25G31   29.87F WCI  19
VAL MARIE      N/A       39  36  89 E6         N/A   WCI  35
ASSINIBOIA     N/A       34  32  92 SE16G25    N/A   WCI  24
CORONACH       N/A       36  30  79 E16G25     N/A   WCI  26

$$




USA.gov is the U.S. government's official web portal to all federal, state and local government web resources and services.